Regional Weather Roundup
Issued by NWS Huntsville, AL

Home | Current Version | Previous Version | Text Only | Print | Product List | Glossary On
Versions: 1 2 3 4 5 6 7 8 9 10 11 12 13 14 15 16 17 18 19 20 21 22 23 24 25 26 27 28 29 30 31 32 33 34 35 36 37 38 39 40 41 42 43 44 45 46 47 48 49 50
222
ASUS44 KHUN 210610
RWRHUN

WEATHER ROUNDUP FOR THE TENNESSEE VALLEY
NATIONAL WEATHER SERVICE HUNTSVILLE AL
1200 AM CST THU NOV 21 2019

ALZ001>004-210700-
NORTHWEST ALABAMA

CITY           SKY/WX    TMP DP  RH WIND       PRES   REMARKS
SHOALS AIRPORT FAIR      50  42  74 CALM      30.20S
6HR MIN TEMP:  48; 6HR MAX TEMP:  55;

$$

ALZ005>007-016-210700-
NORTH CENTRAL ALABAMA

CITY           SKY/WX    TMP DP  RH WIND       PRES   REMARKS
DECATUR AP     FAIR      47  38  71 CALM      30.22R
6HR MIN TEMP:  44; 6HR MAX TEMP:  49;

HUNTSVILLE AP  MOCLDY    47  39  74 E5        30.21S
6HR MIN TEMP:  46; 6HR MAX TEMP:  53;

HUN NWS/UAH      N/A     49  40  71 SE2         N/A
MERIDIANVILLE  CLEAR     44  40  85 CALM      30.22S
VINEMONT AP    FAIR      47  37  66 SE3       30.23S
$$

ALZ008>010-210700-
NORTHEAST ALABAMA

CITY           SKY/WX    TMP DP  RH WIND       PRES   REMARKS
ALBERTVILLE    FAIR      50  36  57 SE3       30.22S
FORT PAYNE     FAIR      42  39  87 CALM      30.23R
SCOTTSBORO AP  FAIR      45  45 100 CALM      30.24R
$$

TNZ076-096-097-210700-
SOUTHEASTERN MIDDLE TENNESSEE

CITY           SKY/WX    TMP DP  RH WIND       PRES   REMARKS
FAYETTEVILLE   CLEAR     46  37  71 SE3       30.20S
TULLAHOMA      CLEAR     45  37  76 CALM      30.20S
WINCHESTER     CLEAR     43  37  81 SE5       30.21F
$$

...SURROUNDING SITES...

CITY           SKY/WX    TMP DP  RH WIND       PRES   REMARKS
ATLANTA        MOCLDY    48  37  65 CALM      30.24R
ANNISTON       FAIR      47  41  80 N3        30.23F
BIRMINGHAM     MOCLDY    49  40  71 CALM      30.24R
CHATTANOOGA    FAIR      43  40  89 SE3       30.24R
CORINTH        FAIR      52  36  54 CALM      30.18R
DALTON         FAIR      41  37  87 CALM      30.26R
GADSDEN        FAIR      42  40  92 CALM      30.24R
GOLDEN TRNGL   FAIR      53  41  63 SE6       30.19S
HALEYVILLE     FAIR      43  38  82 CALM      30.22S
JACKSON TN     FAIR      67  37  33 SE5       30.17F
MEMPHIS        MOCLDY    56  38  50 S7        30.14F
NASHVILLE      FAIR      45  37  73 CALM      30.21F
OXFORD MS      FAIR      46  37  71 CALM      30.19R
ROME           FAIR      42  38  85 CALM      30.24R
SAVANNAH       CLEAR     54  37  54 S6        30.17F
SELMER         CLEAR     54  36  50 SE6       30.16F
TUPELO         FAIR      49  39  68 CALM      30.18S
TUSCALOOSA     FAIR      46  42  86 CALM      30.21S
$$





USA.gov is the U.S. government's official web portal to all federal, state and local government web resources and services.